Tracking 24120 objects as of 5-Dec-2021
HD Live streaming from Space Station
objects crossing your sky now

COSMOS 1299 FUEL CORE

Track COSMOS 1299 FUEL CORE now!
10-day predictions


NORAD ID: 12808
Int'l Code: 1981-081C
Perigee: 920.0 km
Apogee: 961.3 km
Inclination: 65.1 °
Period: 103.7 minutes
Semi major axis: 7311 km
RCS: 0.1748 m2 (medium)
Launch date: August 24, 1981
Source: Commonwealth of Independent States (former USSR) (CIS)
Launch site: TYURATAM MISSILE AND SPACE COMPLEX (TTMTR)

Note: This is SATELLITE DEBRIS
aabbcc
Your satellite tracking list
Your tracking list is empty




NASA's NSSDC Master Catalog

Two Line Element Set (TLE):
1 12808U 81081C   21338.79504194 -.00000071  00000-0  14921-4 0  9993
2 12808  65.1143 186.7129 0028237 323.7098 113.0231 13.88607608 42766
Source of the keplerian elements: AFSPC